Laredo, TX

2:40 PM CST on November 19, 2017 (GMT -0600)
Laredo International

Weather History for KLRD - November, 2011

Change the Weather History Date:

Tuesday, November 15, 2011

  Actual Average Record
Temperature  
Mean Temperature 73 °F 66 °F  
Max Temperature 83 °F 76 °F 94 °F (1938)
Min Temperature 62 °F 55 °F 24 °F (1908)
Degree Days  
Heating Degree Days 0 3  
Month to date heating degree days 23 31  
Since 1 July heating degree days 32 43  
Cooling Degree Days 8 4  
Month to date cooling degree days 110 84  
Year to date cooling degree days 5575 4213  
Growing Degree Days 22 (Base 50)    
Moisture  
Dew Point 59 °F    
Average Humidity 70    
Maximum Humidity 87    
Minimum Humidity 33    
Precipitation  
Precipitation 0.20 in 0.04 in 1.00 in (1923)
Month to date precipitation 0.20 0.66  
Year to date precipitation 4.41 18.79  
Sea Level Pressure  
Sea Level Pressure 29.79 in    
Wind  
Wind Speed 9 mph (WNW)    
Max Wind Speed 40 mph    
Max Gust Speed 51 mph    
Visibility 8 miles    
Events Rain , Thunderstorm    
T = Trace of Precipitation, MM = Missing Value Source: NWS Daily Summary

Daily Weather History Graph

Daily Weather History Graph

Search for Another Location

Airport or City:

Trip Planner

Search our weather history database for the weather conditions in past years. The results will help you decide how hot, cold, wet, or windy it might be!

Date:

Astronomy

Nov. 15, 2011 Rise Set
Actual Time 6:58 AM CST 5:46 PM CST
Civil Twilight 6:33 AM CST 6:10 PM CST
Nautical Twilight 6:05 AM CST 6:38 PM CST
Astronomical Twilight 5:37 AM CST 7:06 PM CST
Moon 9:57 PM CST (11/15) 10:56 AM CST (11/15)
Length of Visible Light 11h 36m
Length of Day
10h 47m
Waning Gibbous, 79% of the Moon is Illuminated
Nov 15
Waning Gibbous
Nov 18
Last Quarter
Nov 25
New
Dec 2
First Quarter
Dec 10
Full

Hourly Weather History & Observations

Time (CST) Temp. Dew Point Humidity Pressure Visibility Wind Dir Wind Speed Gust Speed Precip Events Conditions
12:09 AM 75.2 °F 69.8 °F 83% 29.76 in 9.0 mi SSE 10.4 mph - N/A   Mostly Cloudy
12:56 AM 73.9 °F 68.9 °F 84% 29.73 in 8.0 mi SSE 8.1 mph - N/A   Mostly Cloudy
1:09 AM 73.4 °F 69.8 °F 88% 29.76 in 8.0 mi SE 8.1 mph - N/A   Scattered Clouds
1:56 AM 72.9 °F 68.0 °F 85% 29.71 in 7.0 mi East 6.9 mph - N/A   Mostly Cloudy
2:43 AM 73.4 °F 68.0 °F 83% 29.73 in 7.0 mi SSE 6.9 mph - N/A   Scattered Clouds
2:56 AM 72.9 °F 68.0 °F 85% 29.69 in 7.0 mi SSE 8.1 mph - N/A   Partly Cloudy
3:56 AM 72.9 °F 68.0 °F 85% 29.71 in 8.0 mi Calm Calm - N/A   Mostly Cloudy
4:56 AM 73.9 °F 68.0 °F 82% 29.74 in 7.0 mi West 9.2 mph - N/A   Overcast
5:12 AM 68.0 °F 57.2 °F 68% 29.81 in 3.0 mi NW 31.1 mph 50.6 mph 0.01 in Rain Heavy Rain
5:14 AM 66.2 °F 57.2 °F 73% 29.81 in 2.5 mi NW 28.8 mph 50.6 mph 0.03 in Rain Heavy Rain
5:16 AM 64.4 °F 57.2 °F 77% 29.81 in 1.8 mi NW 25.3 mph 39.1 mph 0.04 in Rain Heavy Rain
5:26 AM 62.6 °F 59.0 °F 88% 29.83 in 2.0 mi WNW 18.4 mph 32.2 mph 0.09 in Rain Heavy Rain
5:33 AM 62.6 °F 59.0 °F 88% 29.84 in 2.0 mi WNW 17.3 mph 27.6 mph 0.14 in Rain , Thunderstorm Heavy Thunderstorms and Rain
5:40 AM 62.6 °F 59.0 °F 88% 29.82 in 3.0 mi NW 15.0 mph - 0.16 in Rain , Thunderstorm Heavy Thunderstorms and Rain
5:46 AM 62.6 °F 59.0 °F 88% 29.82 in 4.0 mi WNW 18.4 mph 23.0 mph 0.16 in Rain , Thunderstorm Thunderstorms and Rain
5:49 AM 62.6 °F 59.0 °F 88% 29.82 in 5.0 mi NW 21.9 mph 27.6 mph 0.17 in Rain Light Rain
5:56 AM 61.9 °F 57.9 °F 87% 29.77 in 10.0 mi NW 16.1 mph 27.6 mph 0.17 in Rain Light Rain
6:56 AM 62.6 °F 57.2 °F 82% 29.82 in 10.0 mi NW 17.3 mph 25.3 mph N/A Rain Light Rain
7:10 AM 62.6 °F 59.0 °F 88% 29.83 in 5.0 mi WNW 17.3 mph - 0.00 in Rain Light Rain
7:56 AM 61.9 °F 56.8 °F 84% 29.80 in 10.0 mi North 11.5 mph - 0.01 in Rain Light Rain
8:56 AM 64.9 °F 57.9 °F 78% 29.80 in 10.0 mi ENE 5.8 mph - 0.00 in   Clear
9:56 AM 68.0 °F 59.0 °F 73% 29.86 in 10.0 mi WNW 17.3 mph 21.9 mph N/A   Clear
10:56 AM 73.9 °F 57.9 °F 57% 29.83 in 10.0 mi NW 12.7 mph - N/A   Clear
11:56 AM 77.9 °F 54.9 °F 45% 29.81 in 10.0 mi WNW 12.7 mph - N/A   Clear
12:56 PM 81.0 °F 52.0 °F 36% 29.78 in 10.0 mi NW 15.0 mph - N/A   Clear
1:56 PM 81.9 °F 52.9 °F 37% 29.75 in 10.0 mi West 16.1 mph - N/A   Clear
2:56 PM 82.9 °F 50.9 °F 33% 29.73 in 10.0 mi West 10.4 mph 19.6 mph N/A   Clear
3:56 PM 82.9 °F 50.9 °F 33% 29.73 in 10.0 mi WNW 12.7 mph - N/A   Clear
4:56 PM 81.9 °F 50.0 °F 33% 29.74 in 10.0 mi WNW 10.4 mph - N/A   Clear
5:56 PM 78.8 °F 51.8 °F 39% 29.79 in 10.0 mi WNW 5.8 mph - N/A   Clear
6:56 PM 75.9 °F 52.0 °F 43% 29.78 in 10.0 mi SW 5.8 mph - N/A   Clear
7:56 PM 72.0 °F 54.9 °F 55% 29.80 in 10.0 mi Calm Calm - N/A   Clear
8:56 PM 66.9 °F 56.8 °F 70% 29.81 in 10.0 mi SSE 3.5 mph - N/A   Clear
9:56 PM 65.8 °F 55.9 °F 70% 29.82 in 10.0 mi SE 4.6 mph - N/A   Clear
10:56 PM 64.9 °F 55.9 °F 73% 29.82 in 10.0 mi NNW 3.5 mph - N/A   Clear
11:56 PM 62.6 °F 55.4 °F 77% 29.85 in 10.0 mi West 3.5 mph - N/A   Clear